Location: Alafon
(8.4500°N, 4.2333°E)
Time: 02:48:28
(UTC+00:00)

Vanguard 2 - Pass Details

Date: 08 August 2021
Orbit: 553 x 2937 km, 32.9° (Epoch: 27 September)

Event Time Altitude Azimuth Distance (km) Brightness Sun altitude
Rises 06:24:18 0° 334° (NNW) 2,939 10.4 10.8°
Reaches altitude 10° 06:27:38 10° 3° (N) 2,275 10.2 11.6°
Maximum altitude 06:30:15 14° 33° (NNE) 2,263 10.8 12.2°
Drops below altitude 10° 06:33:20 10° 62° (ENE) 2,815 12.5 13.0°
Sets 06:38:28 0° 86° (E) 4,324 13.2 14.2°
